Location: Newark
(33.9035°S, 18.4112°E)
Time: 07:08:33
(UTC+00:00)

STARLINK-1122 - Pass Details

Date: 18 January 2020
Orbit: 348 x 351 km, 53.0° (Epoch: 23 February)

Event Time Altitude Azimuth Distance (km) Brightness Sun altitude
Exits shadow 03:21:39 - 332° (NNW) 1,647 5.5 -6.6°
Reaches altitude 10° 03:22:29 10° 336° (NNW) 1,315 5.1 -6.5°
Maximum altitude 03:25:17 43° 49° (NE) 513 3.7 -6.0°
Drops below altitude 10° 03:28:08 10° 122° (ESE) 1,333 7.5 -5.5°
Sets 03:30:13 0° 129° (SE) 2,184 9.0 -5.1°
